This is the latest recevied weather packets stored in our database for station/object UB3AVW-10. If no packets are shown the sender has not sent any weather packets the latest 1 day(s).
| Time | Temp. | Humidity | Pressure | Rain* | Wind** | Luminosity | Snow |
|---|---|---|---|---|---|---|---|
| 1778036032 | 13.33° C | 85% | 983.4 hPa | - | 2.68 m/s, 229° | - | - |
| 1778035425 | 13.89° C | 82% | 984.3 hPa | - | 2.68 m/s, 260° | - | - |
| 1778035121 | 13.89° C | 82% | 984.3 hPa | - | 2.68 m/s, 260° | - | - |
| 1778034818 | 12.78° C | 83% | 984.2 hPa | - | 2.68 m/s, 260° | - | - |
| 1778034699 | 12.78° C | 84% | 984.2 hPa | - | 2.68 m/s, 260° | - | - |
| 1778034515 | 12.78° C | 84% | 984.2 hPa | - | 2.68 m/s, 260° | - | - |
| 1778033908 | 12.78° C | 85% | 984.3 hPa | - | 1.79 m/s, 228° | - | - |
| 1778033605 | 12.78° C | 85% | 984.3 hPa | - | 1.79 m/s, 228° | - | - |
| 1778033301 | 12.78° C | 87% | 984.3 hPa | - | 1.79 m/s, 226° | - | - |
| 1778032998 | 12.78° C | 87% | 984.3 hPa | - | 1.79 m/s, 226° | - | - |
| 1778032694 | 13.33° C | 87% | 984.3 hPa | - | 1.79 m/s, 226° | - | - |
| 1778032391 | 12.78° C | 87% | 984.3 hPa | - | 1.79 m/s, 226° | - | - |
| 1778032087 | 13.89° C | 87% | 984.3 hPa | - | 1.79 m/s, 226° | - | - |
| 1778031784 | 13.89° C | 87% | 984.3 hPa | - | 1.79 m/s, 226° | - | - |
| 1778030572 | 13.89° C | 87% | 984.3 hPa | - | 1.79 m/s, 226° | - | - |
| 1778030269 | 12.78° C | 87% | 985.2 hPa | - | 1.79 m/s, 226° | - | - |
| 1778029661 | 12.78° C | 87% | 984.2 hPa | - | 1.79 m/s, 226° | - | - |
| 1778029298 | 12.78° C | 86% | 984.3 hPa | - | 1.79 m/s, 226° | - | - |
| 1778029054 | 12.78° C | 86% | 984.3 hPa | - | 1.79 m/s, 226° | - | - |
| 1778028750 | 13.33° C | 83% | 984.3 hPa | - | 1.79 m/s, 226° | - | - |
| 1778028446 | 13.33° C | 84% | 984.3 hPa | - | 2.24 m/s, 226° | - | - |
| 1778027839 | 13.89° C | 82% | 984.3 hPa | - | 2.24 m/s, 226° | - | - |
| 1778027477 | 13.89° C | 82% | 984.3 hPa | - | 2.24 m/s, 226° | - | - |
| 1778027233 | 13.89° C | 82% | 984.3 hPa | - | 2.24 m/s, 226° | - | - |
| 1778026323 | 13.89° C | 82% | 984.3 hPa | - | 2.24 m/s, 226° | - | - |
* Rain since midnight (hover to see other rain measurements)
** Current wind speed in m/s (hover to see current wind gust speed)